Regional Weather Roundup
Issued by NWS

Home | Current Version | Previous Version | Graphics & Text | Print | Product List | Glossary On
Versions: 1 2 3 4 5 6 7 8 9 10 11 12 13 14 15 16 17 18 19 20 21 22 23 24 25 26 27 28 29 30 31 32 33 34 35 36 37 38 39 40 41 42 43 44 45 46 47 48 49 50
919
ASUS45 KBOU 290607
RWRCO

WEATHER ROUNDUP FOR COLORADO
NATIONAL WEATHER SERVICE DENVER/BOULDER CO
1200 AM MDT WED MAR 29 2017

NOTE: "FAIR" INDICATES FEW OR NO CLOUDS BELOW 12000 FEET WITH NO
SIGNIFICANT WEATHER AND/OR OBSTRUCTIONS TO VISIBILITY.

COZ001>005-013-030-031-290700-
...NORTHWEST COLORADO...

CITY           SKY/WX    TMP DP  RH WIND       PRES   REMARKS
CRAIG          FAIR      37  28  70 CALM      30.11R
HAYDEN         FAIR      34  25  69 SW6       30.09S WCI  29
MEEKER         FAIR      35  30  82 N6        30.10R WCI  30
MOUNT WERNER   NOT AVBL
STEAMBOAT SPGS FAIR      33  32  95 CALM      30.08S
WALDEN         NOT AVBL
$$

COZ006>008-011-290700-
...WEST CENTRAL VALLEYS...

CITY           SKY/WX    TMP DP  RH WIND       PRES   REMARKS
GRAND JUNCTION FAIR      44  34  67 N8        30.03R
MONTROSE       FAIR      42  34  73 NW8       30.01R
EAGLE          FAIR      38  31  76 W3        30.06F
RIFLE          FAIR      43  32  65 NW10      30.04R
DELTA          FAIR      48  36  63 CALM      29.98R
NUCLA          FAIR      45  30  57 NW12G18   30.00S
$$

COZ017>023-064>068-290700-
...SOUTHWEST COLORADO...

CITY           SKY/WX    TMP DP  RH WIND       PRES   REMARKS
DURANGO        FAIR      37  34  89 NE3       29.85S
CORTEZ         FAIR      44  32  62 N14       29.90F
PAGOSA SPRINGS FAIR      37  36  98 N3        29.86F
TELLURIDE      LGT SNOW  32  30  92 SW9G24    29.97S WCI  24
WOLF CREEK PAS CLOUDY    23  23 100 N18       29.98R WCI   9
$$

COZ009-010-012-014-032>034-037-058>063-290700-
...CENTRAL COLORADO...

CITY           SKY/WX    TMP DP  RH WIND       PRES   REMARKS
ASPEN          MOCLDY    36  30  79 N5        30.01S
BUENA VISTA    CLOUDY    36  33  88 E5        30.00R
COPPER MTN     CLOUDY    25  19  80 MISG      30.05F
BERTHOUD PASS  HAZE      18   7  62 NE10G18   30.07F VSB<1/4 WCI   6
COTTONWOOD PAS CLOUDY    32  30  93 E3        30.02R
GUNNISON       FAIR      34  33  96 S6        29.96F WCI  29
KREMMLING      FAIR      37  32  81 N3        30.08F
LEADVILLE      MOCLDY    27  22  81 N16G25    30.00F WCI  15
MONARCH PASS   CLOUDY    23  21  93 NE46G54   30.02R WCI   2
SALIDA         CLOUDY    39  35  86 CALM      30.07R
SUNLIGHT       CLOUDY   N/A N/A N/A N8        30.12S
WILKERSON PASS LGT SNOW  25  23  93 NE8       30.06R WCI  16
$$

COZ069>075-290700-
...SAN LUIS VALLEY/SANGRE DE CRISTO MOUNTAINS...

CITY           SKY/WX    TMP DP  RH WIND       PRES   REMARKS
ALAMOSA        CLOUDY    37  34  89 N10       29.87F
LA VETA PASS   NOT AVBL
SAGUACHE       CLOUDY    41  28  60 N10       29.93R
$$

COZ035-036-038>040-290700-
...NORTHERN COLORADO FRONT RANGE...

CITY           SKY/WX    TMP DP  RH WIND       PRES   REMARKS
DENVER INTL AP LGT SNOW  35  35 100 N15       30.05R FOG     WCI  25
DMNS CITY PARK   N/A     38  37  97 N8G17     30.06R
AURORA         FLURRIES  34  34 100 N17G25    30.06R WCI  24
FRONT RANGE AP LGT RAIN  36  36 100 NE18G26   30.06R
ERIE MUNI ARPT MOCLDY    39  37  93 NE12      30.07F
BOULDER MUN AP CLOUDY    39  37  93 N7        30.05F
CENTENNIAL     LGT RAIN  35  50 100 N16G29    30.05R WCI  25
BROOMFIELD     CLOUDY    37  36  93 N16       30.06S
FORT COLLINS   FAIR      38  35  89 N10       30.05F
LONGMONT       FAIR      41  37  85 N6        30.07F
$$

COZ041-046-047-076>085-087-088-290700-
...PIKES PEAK/PALMER DIVIDE AND SOUTHERN FOOTHILLS...

CITY           SKY/WX    TMP DP  RH WIND       PRES   REMARKS
COLO. SPRINGS  CLOUDY    39  33  79 N18G31    29.98S
A. F. ACADEMY  NOT AVBL
SCHRIEVER AFB  LGT RAIN  38  34  87 N20G30    29.97
ELLICOTT       MIX PCPN N/A N/A N/A NE7       29.97S
FALCON         CLOUDY    35  33  92 N22G36    29.98S WCI  23
FORT CARSON    CLOUDY    41  33  75 N24G37    29.95F
LIMON          LGT SNOW  33  33 100 NE8       30.01R FOG     WCI  26
MONUMENT HILL  LGT SNOW  32  32 100 N21G31    30.02F WCI  20
TRINIDAD       LGT RAIN  39  37  92 NE16      29.91F FOG
$$

COZ042>045-048>051-090-091-290700-
...NORTHEAST COLORADO...

CITY           SKY/WX    TMP DP  RH WIND       PRES   REMARKS
GREELEY ARPT   CLOUDY    39  37  92 N9        30.08F
AKRON          LGT RAIN  37  34  89 NE9       30.05R
BURLINGTON     LGT RAIN  39  39 100 NE14      30.01R FOG
WRAY           NOT AVBL
STERLING       CLOUDY    39  37  93 NE6       30.06R
HOLYOKE        LGT RAIN  41  37  87 NE15      30.07R
FORT MORGAN    CLOUDY    37  35  95 NE10      30.08R
$$

COZ086-089-092>099-290700-
...SOUTHEAST COLORADO...

CITY           SKY/WX    TMP DP  RH WIND       PRES   REMARKS
PUEBLO         LGT RAIN  42  40  92 E9        29.97S FOG
LA JUNTA       CLOUDY    41  39  93 NE16      29.96S FOG
LAMAR          LGT RAIN  41  39  93 NE14      29.94F FOG
SPRINGFIELD      N/A     39  39 100 NE20      29.89S
$$




USA.gov is the U.S. government's official web portal to all federal, state and local government web resources and services.